SCOUT A DEB, 3591

Orbit data source: Space-Track

SCOUT A DEB, 3591 is space debris in LEO originally from a launch on Thu, 19 May 1966 UTC launched from the Air Force Western Test Range (AFWTR). Debris objects in space refer to the collection of defunct objects orbiting the Earth. Examples of debris include non-operational satellites, rocket bodies, and fragments generated from explosions, collisions, or faulty payload assembly.

Loading next visibility...
SCOUT A DEB details
Identifier
3591, 1966-041E
Orbit
LEO
Last TLE update10 hours ago
Origin
Flag of USUSN NAVAIR (US)
ManufacturerUnknown
MissionSpacecraft
Bus & MotorUnknown
MassUnknown
Launch date (UTC)
1966-05-19 (59 years ago)
Launch vehicleUnknown
Launch site
Air Force Western Test Range (AFWTR)
Object type
Payload
Rocket body
Debris
Shape & HBRUnknown
Radar Cross SectionSmall (<0.1 m²)

Expand to show TLE details & history

TLE from 10 hours ago
0 SCOUT A DEB
1  3591U 66041E   24356.19447621  .00000316  00000-0  18901-3 0  9991
2  3591  90.2200  69.5936 0079831  46.9639 313.8192 14.03721804991732
Epoch: 2024-12-21T04:40Z
Definitive object data (Epoch: 2024-12-21T04:40:02.744Z)
Latitude-0°
Longitude-90.66697°
Altitude844.078 km
Speed7.451 km/s
True Right ascension04h 38m 22s
True Declination0° 00' 00"
Sunlit
Object was in full shadow at TLE epoch
Visualization TLE readout
Latitude-46.98013°
Longitude-90.42228°
Altitude901.134 km
Speed7.399 km/s
Apparent Right ascension03h 12m 47s
Apparent Declination-45° 37' 52"
Sunlit
Object is in daylight
Visualization observer readout
Local Sidereal Time13:44:49
Azimuth243.208° WSW
Elevation-72.942°
Doppler factor1
Orbital elements
Apogee altitude935.833 km
Perigee altitude819.982 km
Semi-major axis7,256.044 km
Eccentricity0.0079831
Inclination90.22°
RAAN69.5936°
Arg. of periapsis46.9639°
True anomaly313.15457°
Mean anomaly313.8192°
Eccentric anomaly313.48735°
Mean motion3.5115 °/min
BSTAR0.00018901
Orbital period102.52 mins
Loading maneuver chart data...
Loading historical data...
Loading historical data...
Loading historical data...
Loading historical data...
Loading historical data...
Loading historical data...
Loading historical data...

SCOUT A DEB Visibility forecast

Observer location: undefined°, undefined

Span
Click to sort rows by Start time (UTC) header in descending order
Start Az.
Max El. time (UTC)
Max El. Az.
Max El.
End time (UTC)
End Az.
11 mins2024-12-21 17:12:39.146Z9.645° NNE2024-12-21 17:17:39.146Z67.497° ENE41.085°2024-12-21 17:23:39.146Z171.32° S
5 mins2024-12-21 18:57:39.146Z313.746° NW2024-12-21 18:59:39.146Z290.067° WNW16.207°2024-12-21 19:02:39.146Z255.236° W
7 mins2024-12-22 04:45:39.146Z130.44° SE2024-12-22 04:48:39.146Z78.054° E29.704°2024-12-22 04:52:39.146Z19.892° NNE
7 mins2024-12-22 06:27:39.146Z227.816° WSW2024-12-22 06:30:39.146Z269.148° W23.829°2024-12-22 06:34:39.146Z326.431° NNW
|